Regional Weather Roundup
Issued by NWS

Home | Current Version | Previous Version | Graphics & Text | Print | Product List | Glossary On
Versions: 1 2 3 4 5 6 7 8 9 10 11 12 13 14 15 16 17 18 19 20 21 22 23 24 25 26 27 28 29 30 31 32 33 34 35 36 37 38 39 40 41 42 43 44 45 46 47 48 49 50
942
ASUS44 KMEG 221400
RWRTN
TENNESSEE HOURLY STATE WEATHER ROUNDUP
NATIONAL WEATHER SERVICE MEMPHIS TN
800 AM CST SUN JAN 22 2017

TNZ002-004-019-021-049-052-054-088>092-221500-
WEST TENNESSEE

CITY           SKY/WX    TMP DP  RH WIND       PRES   REMARKS
MEMPHIS INTL   NOT AVBL
NWS MEMPHIS      N/A     55 N/A N/A MISG        N/A
JACKSON        CLOUDY    56  55  97 CALM      29.42S
DYERSBURG      PTCLDY    54  52  94 E7        29.42R
UNION CITY     MOCLDY    55  55 100 CALM      29.42F
PARIS          PTCLDY    52  50  93 CALM      29.44F
$$

TNZ008-025-027-028-033-062-065-066-221500-
NORTH MIDDLE TENNESSEE

CITY           SKY/WX    TMP DP  RH WIND       PRES   REMARKS
NASHVILLE      LGT RAIN  54  52  93 S3        29.49R
CLARKSVILLE    CLOUDY    53  49  86 E5        29.47S
SMYRNA         LGT RAIN  54  53  97 CALM      29.49R
CROSSVILLE     CLOUDY    52  51  97 CALM      29.47F
$$

TNZ061-075-076-078-094-096-097-221500-
SOUTH MIDDLE TENNESSEE

CITY           SKY/WX    TMP DP  RH WIND       PRES   REMARKS
TULLAHOMA      MOSUNNY   54  54 100 S5        29.48R
WINCHESTER     PTSUNNY   55  54  94 S15       29.49R
COLUMBIA       CLOUDY   N/A N/A N/A CALM      29.45S
SHELBYVILLE    PTSUNNY   57  55  94 S7        29.48R
$$

TNZ017-018-042-046-047-221500-
NORTHEAST TENNESSEE

CITY           SKY/WX    TMP DP  RH WIND       PRES   REMARKS
TRI CITIES     CLOUDY    50  48  93 CALM      29.53F
$$

TNZ012-013-036-069-073-074-221500-
CENTRAL EAST TENNESSEE

CITY           SKY/WX    TMP DP  RH WIND       PRES   REMARKS
KNOXVILLE      PTSUNNY   52  50  93 CALM      29.48R
OAK RIDGE      LGT RAIN  51  49  92 E5        29.50S FOG
GATLINBURG     PTSUNNY   48  48 100 CALM      29.48S
$$

TNZ083-085-099-221500-
SOUTHEAST TENNESSEE

CITY           SKY/WX    TMP DP  RH WIND       PRES   REMARKS
CHATTANOOGA    PTSUNNY   59  55  87 S8        29.51R
$$

SKY/WX REPORTED AS FAIR MEANS FEW OR NO CLOUDS BELOW
12 THOUSAND FEET.





USA.gov is the U.S. government's official web portal to all federal, state and local government web resources and services.